Location: Basse Occidentale du Courleau
(48.3833°N, 4.8333°W)
Time: 04:26:23
(UTC+00:00)

Cosmos 2322 - Pass Details

Date: 05 July 2020
Orbit: 841 x 854 km, 71.0° (Epoch: 11 August)

Event Time Altitude Azimuth Distance (km) Brightness Sun altitude
Rises 22:00:17 0° 209° (SSW) 3,411 6.6 -12.0°
Reaches altitude 10° 22:02:43 10° 210° (SSW) 2,479 5.9 -12.2°
Maximum altitude 22:08:26 82° 298° (WNW) 869 3.8 -12.7°
Drops below altitude 10° 22:14:11 10° 27° (NNE) 2,493 6.6 -13.2°
Sets 22:16:39 0° 28° (NNE) 3,432 7.3 -13.4°
